FW4728 Weather Reports


time (UTC)temp
F
wind
direction
speed
knots
gust
knots
rain 1hr
in
rain 24hr
in
rain mn
in
humidity
%
barometer
mb
20260504050304 51 329 0.0 0.0 0.00 0.00 0.00 63 1005.6
20260504045804 51 329 0.0 0.0 0.00 0.00 0.00 62 1005.6
20260504043804 53 329 0.0 0.0 0.00 0.00 0.00 57 1006.0
20260504043304 53 329 0.0 0.0 0.00 0.00 0.00 56 1005.9
20260504042804 54 329 0.0 0.0 0.00 0.00 0.00 54 1006.0
20260504041804 55 329 0.0 0.0 0.00 0.00 0.00 52 1006.1
20260504041304 56 329 0.0 0.9 0.00 0.00 0.00 50 1006.2
20260504040304 57 329 0.0 2.6 0.00 0.00 0.00 49 1006.2
20260504035803 57 329 0.0 0.0 0.00 0.00 0.00 48 1006.3
20260504034804 58 329 0.0 0.9 0.00 0.00 0.00 46 1006.4
20260504033804 59 329 0.9 0.9 0.00 0.00 0.00 45 1006.4
20260504033304 59 329 0.0 2.6 0.00 0.00 0.00 45 1006.4
20260504032804 60 329 0.9 2.6 0.00 0.00 0.00 44 1006.4
20260504032304 60 329 0.0 2.6 0.00 0.00 0.00 43 1006.4
20260504031804 60 329 1.7 2.6 0.00 0.00 0.00 43 1006.5
20260504030804 61 329 0.0 2.6 0.00 0.00 0.00 41 1006.5
20260504030304 61 329 0.9 2.6 0.00 0.00 0.00 41 1006.5
20260504025804 61 329 0.0 2.6 0.00 0.00 0.00 41 1006.5
20260504025304 62 329 0.0 2.6 0.00 0.00 0.00 41 1006.5
20260504024803 62 329 0.0 2.6 0.00 0.00 0.00 41 1006.3
20260504023804 63 329 0.9 2.6 0.00 0.00 0.00 39 1006.3
20260504023304 63 329 0.9 2.6 0.00 0.00 0.00 39 1006.2
20260504022305 64 329 0.0 2.6 0.00 0.00 0.00 38 1006.1
20260504021804 64 329 0.0 2.6 0.00 0.00 0.00 37 1006.1
20260504021304 64 329 0.0 2.6 0.00 0.00 0.00 37 1006.0
20260504020803 65 329 1.7 4.3 0.00 0.00 0.00 36 1006.0
20260504020304 65 329 0.9 4.3 0.00 0.00 0.00 35 1006.0
20260504015804 65 330 2.6 4.3 0.00 0.00 0.00 35 1005.9
20260504015304 65 330 4.3 4.3 0.00 0.00 0.00 35 1005.9
20260504014804 65 330 1.7 4.3 0.00 0.00 0.00 34 1005.9
20260504014304 66 330 0.9 4.3 0.00 0.00 0.00 34 1005.9
20260504013804 66 330 1.7 4.3 0.00 0.00 0.00 33 1005.8
20260504013304 66 330 0.9 2.6 0.00 0.00 0.00 33 1005.8
20260504012805 67 330 0.9 4.3 0.00 0.00 0.00 32 1005.8
20260504010805 69 330 0.9 2.6 0.00 0.00 0.00 30 1005.6
20260504010304 69 330 1.7 4.3 0.00 0.00 0.00 29 1005.6
20260504005804 69 330 2.6 6.1 0.00 0.00 0.00 29 1005.5
20260504005305 70 316 4.3 6.1 0.00 0.00 0.00 28 1005.6
20260504004804 70 320 2.6 7.0 0.00 0.00 0.00 28 1005.5
20260504004304 71 327 2.6 7.0 0.00 0.00 0.00 28 1005.5
20260504003304 71 296 5.2 8.7 0.00 0.00 0.00 26 1005.5
20260504002804 72 316 5.2 12.2 0.00 0.00 0.00 26 1005.4
20260504002304 72 308 6.1 12.2 0.00 0.00 0.00 25 1005.4
20260504001806 72 289 5.2 8.7 0.00 0.00 0.00 25 1005.4
20260504001305 72 288 4.3 8.7 0.00 0.00 0.00 25 1005.4
20260504000806 73 274 4.3 8.7 0.00 0.00 0.00 25 1005.4
20260504000306 73 334 5.2 10.4 0.00 0.00 0.00 25 1005.3
20260503235806 73 292 7.8 12.2 0.00 0.00 0.00 25 1005.3
20260503235306 74 323 5.2 12.2 0.00 0.00 0.00 25 1005.3
20260503234306 74 286 7.8 13.0 0.00 0.00 0.00 25 1005.1
20260503233806 74 357 4.3 10.4 0.00 0.00 0.00 26 1005.2
20260503233305 74 299 4.3 8.7 0.00 0.00 0.00 27 1005.2
20260503232805 75 305 2.6 6.1 0.00 0.00 0.00 28 1005.2
20260503231305 75 284 4.3 10.4 0.00 0.00 0.00 27 1005.2
20260503230306 75 326 5.2 10.4 0.00 0.00 0.00 27 1005.2
20260503225806 75 314 9.6 14.8 0.00 0.00 0.00 27 1005.2
20260503225306 75 318 3.5 14.8 0.00 0.00 0.00 28 1005.1
20260503224805 75 332 5.2 10.4 0.00 0.00 0.00 28 1005.2
20260503224305 75 258 5.2 10.4 0.00 0.00 0.00 26 1005.2
20260503223806 75 322 5.2 12.2 0.00 0.00 0.00 28 1005.2
20260503223305 76 314 7.8 12.2 0.00 0.00 0.00 28 1005.2
20260503222806 75 277 5.2 12.2 0.00 0.00 0.00 27 1005.1
20260503222305 76 337 8.7 12.2 0.00 0.00 0.00 27 1005.0
20260503221806 75 310 6.1 13.0 0.00 0.00 0.00 28 1005.0
20260503220306 76 293 7.8 13.0 0.00 0.00 0.00 27 1005.0
20260503215806 76 267 9.6 15.6 0.00 0.00 0.00 26 1005.0
20260503215305 76 259 10.4 15.6 0.00 0.00 0.00 25 1004.8
20260503214305 76 257 7.8 14.8 0.00 0.00 0.00 25 1004.9
20260503213805 76 256 7.8 13.0 0.00 0.00 0.00 25 1004.9
20260503213305 76 257 8.7 14.8 0.00 0.00 0.00 26 1004.9
20260503212805 76 292 9.6 14.8 0.00 0.00 0.00 27 1004.9
20260503212306 76 292 13.0 14.8 0.00 0.00 0.00 27 1004.8
20260503211805 76 356 6.1 13.0 0.00 0.00 0.00 30 1004.9
20260503211306 76 307 10.4 13.0 0.00 0.00 0.00 29 1004.9
20260503210806 77 304 11.3 13.0 0.00 0.00 0.00 27 1005.0
20260503210305 76 296 7.8 15.6 0.00 0.00 0.00 27 1004.9
20260503205306 77 292 8.7 15.6 0.00 0.00 0.00 27 1005.1
20260503204806 76 291 7.8 21.7 0.00 0.00 0.00 27 1005.1
20260503204306 76 258 10.4 21.7 0.00 0.00 0.00 25 1005.0
20260503203805 76 269 12.2 21.7 0.00 0.00 0.00 25 1005.1
20260503202806 76 325 9.6 15.6 0.00 0.00 0.00 29 1005.1
20260503202305 76 321 11.3 15.6 0.00 0.00 0.00 27 1005.2
20260503201806 76 330 12.2 15.6 0.00 0.00 0.00 28 1005.1
20260503200805 76 281 10.4 20.9 0.00 0.00 0.00 30 1005.1
20260503200306 76 261 9.6 20.9 0.00 0.00 0.00 31 1005.2
20260503195805 76 253 12.2 14.8 0.00 0.00 0.00 29 1005.2
20260503195305 75 284 6.1 14.8 0.00 0.00 0.00 31 1005.2
20260503194806 75 299 10.4 18.2 0.00 0.00 0.00 30 1005.2
20260503193805 75 274 11.3 15.6 0.00 0.00 0.00 31 1005.4
20260503193306 75 300 7.8 15.6 0.00 0.00 0.00 34 1005.4
20260503192806 75 261 7.8 21.7 0.00 0.00 0.00 35 1005.5
20260503192305 75 248 8.7 21.7 0.00 0.00 0.00 37 1005.6
20260503191305 74 315 12.2 19.1 0.00 0.00 0.00 36 1005.7
20260503190805 74 280 8.7 13.0 0.00 0.00 0.00 37 1005.7
20260503185805 74 296 5.2 13.0 0.00 0.00 0.00 39 1005.8
20260503185305 73 304 7.0 13.0 0.00 0.00 0.00 39 1005.9
20260503184805 73 283 12.2 14.8 0.00 0.00 0.00 38 1005.9
20260503184306 73 316 8.7 14.8 0.00 0.00 0.00 38 1005.9
20260503183305 72 303 7.8 15.6 0.00 0.00 0.00 41 1006.1
20260503182805 72 307 8.7 15.6 0.00 0.00 0.00 43 1006.2
20260503182306 71 238 13.9 15.6 0.00 0.00 0.00 40 1006.2
20260503181806 71 283 7.8 14.8 0.00 0.00 0.00 43 1006.4
20260503181305 71 258 7.8 18.2 0.00 0.00 0.00 43 1006.4
20260503180805 71 259 10.4 18.2 0.00 0.00 0.00 43 1006.5
20260503180306 70 216 11.3 14.8 0.00 0.00 0.00 42 1006.6
20260503175306 70 267 8.7 14.8 0.00 0.00 0.00 42 1006.8
20260503174805 69 233 12.2 18.2 0.00 0.00 0.00 42 1006.8
20260503174305 69 216 7.0 18.2 0.00 0.00 0.00 45 1006.9
20260503173805 69 238 14.8 15.6 0.00 0.00 0.00 42 1007.0
20260503173306 68 260 11.3 15.6 0.00 0.00 0.00 44 1007.1
20260503172805 68 308 8.7 12.2 0.00 0.00 0.00 45 1007.1
20260503172305 68 242 11.3 12.2 0.00 0.00 0.00 44 1007.1
20260503171805 67 253 8.7 13.0 0.00 0.00 0.00 45 1007.2
20260503171306 67 264 10.4 14.8 0.00 0.00 0.00 44 1007.3
20260503170805 67 272 8.7 15.6 0.00 0.00 0.00 45 1007.3
20260503150805 59 256 11.3 21.7 0.00 0.00 0.00 51 1008.4
20260503150306 59 219 14.8 21.7 0.00 0.00 0.00 50 1008.5
20260503140305 54 209 6.1 12.2 0.00 0.00 0.00 58 1009.1
20260503130305 53 156 4.3 14.8 0.00 0.00 0.00 58 1009.5
20260503110805 52 118 4.3 7.0 0.00 0.00 0.00 57 1010.3
20260503110305 52 153 7.0 7.0 0.00 0.00 0.00 57 1010.3
20260503090305 51 217 2.6 6.1 0.00 0.00 0.00 56 1012.6
20260503081305 52 236 7.0 10.4 0.00 0.00 0.00 55 1012.7
20260503080805 52 255 1.7 4.3 0.00 0.00 0.00 55 1012.9
20260503080305 52 218 2.6 7.0 0.00 0.00 0.00 55 1012.8
20260503072306 52 260 7.0 8.7 0.00 0.00 0.00 54 1012.8
20260503071805 52 263 1.7 6.1 0.00 0.00 0.00 54 1012.8
20260503071305 52 185 3.5 7.0 0.00 0.00 0.00 54 1012.8
20260503070805 52 179 7.0 7.0 0.00 0.00 0.00 54 1012.9
20260503070305 52 271 0.9 8.7 0.00 0.00 0.00 55 1012.8